Regional Weather Roundup
Issued by NWS

Home | Current Version | Previous Version | Graphics & Text | Print | Product List | Glossary On
Versions: 1 2 3 4 5 6 7 8 9 10 11 12 13 14 15 16 17 18 19 20 21 22 23 24 25 26 27 28 29 30 31 32 33 34 35 36 37 38 39 40 41 42 43 44 45 46 47 48 49 50
874
ASUS43 KDMX 240601
RWRIA

WEATHER ROUNDUP FOR IOWA
NATIONAL WEATHER SERVICE DES MOINES IA
100 AM CDT WED MAY 24 2017

NOTE: "FAIR" INDICATES FEW OR NO CLOUDS BELOW 12,000 FEET WITH NO
SIGNIFICANT WEATHER AND/OR OBSTRUCTIONS TO VISIBILITY.

* - THESE STATIONS ARE NOT NWS STATIONS...THUS NOT UNDER NWS
QUALITY CONTROL.  THEY ALSO DO NOT REPORT WEATHER SUCH
AS PRECIPITATION OR FOG.

IAZ001>003-012>014-020>022-031>034-043>046-240700-
   NORTHWEST IOWA

CITY           SKY/WX    TMP DP  RH WIND       PRES   REMARKS
CARROLL *      CLOUDY    52  50  93 NW14      29.76F
CHEROKEE *     PTCLDY    48  47  97 N5        29.81F
DENISON *      CLOUDY    50  48  93 N8        29.81F
LE MARS *      CLEAR     48  46  93 N7        29.84F
ORANGE CITY *  CLEAR     46  46 100 N8        29.83F
SHELDON *      CLEAR     46  45  93 N9          N/A
SIOUX CITY     CLEAR     47  47 100 NW8       29.84F
6HR MIN TEMP:  47; 6HR MAX TEMP:  54; 6HR PCP: TRACE;

SPENCER        CLOUDY    50  48  93 NW9       29.80F
6HR MIN TEMP:  50; 6HR MAX TEMP:  57; 6HR PCP:  0.01;

STORM LAKE *   CLOUDY    50  46  87 N13G20    29.80F
$$

IAZ055>058-069>071-079>083-090>094-240700-
   SOUTHWEST IOWA

CITY           SKY/WX    TMP DP  RH WIND       PRES   REMARKS
ATLANTIC *     CLOUDY    50  48  93 NW8       29.77F
AUDUBON *      CLOUDY    50  46  87 NW8       29.78F
CLARINDA *     CLEAR     50  48  93 N9        29.79F
COUNCIL BLFS * CLOUDY    50  50 100 NW12      29.80F
CRESTON *      MOCLDY    46  46 100 NW10      29.76F
HARLAN  *      CLOUDY    50  48  93 NW9       29.81F
LAMONI         CLEAR     47  44  90 NW8       29.73F
6HR MIN TEMP:  46; 6HR MAX TEMP:  56;

RED OAK *      CLOUDY    50  48  93 NW9       29.78F
SHENANDOAH *   MOCLDY    50  46  87 NW10      29.79F
$$

IAZ047>049-059>061-072>074-084-240700-
   CENTRAL IOWA

CITY           SKY/WX    TMP DP  RH WIND       PRES   REMARKS
AMES           LGT RAIN  51  50  96 N10       29.72F
6HR MIN TEMP:  50; 6HR MAX TEMP:  60; 6HR PCP:  0.06;

ANKENY *       CLOUDY    50  48  93 NW9       29.73F
BOONE *        LGT RAIN  50  50 100 N10       29.72F
CHARITON *     CLEAR     46  45  93 W7        29.71F
DES MOINES     MOCLDY    51  47  86 NW7       29.72F
6HR MIN TEMP:  51; 6HR MAX TEMP:  59; 6HR PCP: TRACE;

GRINNELL*      PTCLDY    46  44  93 NW6       29.71F
KNOXVILLE *    MOCLDY    46  45  93 NW6       29.70F
MARSHALLTOWN   LGT RAIN  51  50  96 NW8       29.69F
6HR MIN TEMP:  48; 6HR MAX TEMP:  55; 6HR PCP: TRACE;

NEWTON *       PTCLDY    48  46  93 NW8       29.70F
PELLA *        CLEAR     47  46  94 NW7       29.71F
PERRY *        LGT RAIN  50  49  96 NW9       29.74F
$$

IAZ004>006-015-016-023>025-035-036-240700-
   NORTH CENTRAL IOWA

CITY           SKY/WX    TMP DP  RH WIND       PRES   REMARKS
ALGONA *       CLOUDY    52  50  93 N10G17    29.77F
CLARION *      CLOUDY    52  52 100 N13G20    29.74F
ESTHERVILLE    CLOUDY    50  48  93 N12       29.79F
6HR MIN TEMP:  49; 6HR MAX TEMP:  53; 6HR PCP:  0.01;

FORT DODGE *   CLOUDY    50  46  87 N6        29.76F
MASON CITY     CLOUDY    51  48  89 N14       29.75F
6HR MIN TEMP:  50; 6HR MAX TEMP:  52; 6HR PCP:  0.02;

FOREST CITY *  CLOUDY    52  45  76 N8        29.75F
WEBSTER CITY * CLOUDY    52  48  87 N16       29.72F
IOWA FALLS *   DRIZZLE   52  49  91 N10G20    29.72F
$$

IAZ007>011-017>019-026>030-037>042-050>054-066-240700-
   NORTHEAST IOWA

CITY           SKY/WX    TMP DP  RH WIND       PRES   REMARKS
CEDAR RAPIDS   CLEAR     47  47 100 NW5       29.67F
6HR MIN TEMP:  46; 6HR MAX TEMP:  57;

CHARLES CITY * CLOUDY    52  50  93 N13G21    29.71F
CLINTON *      FOG       49  48  97 E3        29.67F VSB 1/4
DECORAH *      CLOUDY    50  50 100 N8        29.69F
DUBUQUE        CLOUDY    51  50  96 NE8       29.66F
6HR MIN TEMP:  51; 6HR MAX TEMP:  58;

MONTICELLO *   CLOUDY    52  48  87 CALM      29.67S
OELWEIN *      CLOUDY    52  52 100 NE9       29.69F
WATERLOO       CLOUDY    52  50  93 N8        29.68F
6HR MIN TEMP:  51; 6HR MAX TEMP:  58; 6HR PCP:  0.11;

$$

IAZ064-065-067-068-078-240700-
   EAST CENTRAL IOWA

CITY           SKY/WX    TMP DP  RH WIND       PRES   REMARKS
DAVENPORT      MOCLDY    51  49  92 W3        29.67F
6HR MIN TEMP:  51; 6HR MAX TEMP:  58;

IOWA CITY      PTCLDY    50  47  89 NW5       29.69F
6HR MIN TEMP:  48; 6HR MAX TEMP:  60;

MT. PLEASANT * MOCLDY    48  46  92 CALM      29.68F
MUSCATINE *    CLOUDY    50  48  93 CALM      29.68S
QUAD CITIES    MOCLDY    52  48  86 CALM      29.66F
6HR MIN TEMP:  51; 6HR MAX TEMP:  58;

$$

IAZ062-063-075>077-085>089-095>099-240700-
   SOUTHEAST IOWA

CITY           SKY/WX    TMP DP  RH WIND       PRES   REMARKS
BURLINGTON     CLOUDY    49  49 100 W3        29.67F
6HR MIN TEMP:  49; 6HR MAX TEMP:  60;

FAIRFIELD *    CLEAR     48  45  87 W7        29.68F
FORT MADISON * PTCLDY    50  48  93 CALM      29.69F
KEOKUK *       CLOUDY    50  48  93 W5        29.68F
OSKALOOSA *      N/A     47  44  91 NW7       29.70F
OTTUMWA        CLEAR     45  43  93 NW7       29.69F
6HR MIN TEMP:  45; 6HR MAX TEMP:  57; 6HR PCP: TRACE;

WASHINGTON *   CLOUDY    52  50  93 W5        29.69S
$$

ABBREVIATIONS USED IN REMARKS
   TC - TEMPERATURES IN CELSIUS
  WCI - WIND CHILL INDEX
   HX - HEAT INDEX
  VSB - VISIBILITY
$$





USA.gov is the U.S. government's official web portal to all federal, state and local government web resources and services.